Theta_e
308 307 309 308 308 308 307 308 309 311 314 314 315 316 317 319 320 321 322 322 323 324 324 323 323 322 322 323 327 328 331 337 341 340 340 337 337 334 334 334 334 334 332 332
307 307 307 307 308 308 307 307 309 309 310 311 312 314 317 317 317 319 320 321 322 322 323 323 323 322 323 323 329 330 332 336 339 339 337 336 337 335 335 333 331 331 331 332
306 307 307 306 306 307 308 307 308 308 309 311 311 312 313 314 315 315 316 318 320 321 321 321 321 321 321 326 330 331 333 335 338 335 335 336 336 334 332 331 331 331 330 328
306 306 305 306 306 306 307 309 308 307 308 309 311 312 312 315 316 317 317 317 318 318 319 319 320 322 322 325 330 332 332 334 338 334 336 337 335 333 332 331 331 330 330 329
307 306 305 306 306 306 305 308 309 309 309 309 309 310 312 314 315 316 316 317 318 320 323 324 324 324 323 324 330 333 333 334 337 336 336 336 336 334 332 330 331 331 330 329
306 306 307 305 306 307 307 307 308 310 310 311 311 311 311 313 315 317 319 319 322 325 326 327 327 329 326 331 333 334 333 335 336 336 336 335 335 333 331 330 330 331 330 331
305 306 306 307 306 306 307 308 308 311 312 313 311 311 312 314 315 316 322 325 326 327 328 329 329 330 327 331 333 330 332 334 334 335 336 335 334 332 331 330 330 330 330 330
306 308 305 306 307 306 306 307 309 310 311 310 309 310 312 314 314 318 323 326 327 328 330 330 331 332 331 331 331 327 330 332 330 333 335 333 332 331 329 329 328 328 329 328
308 307 305 307 308 309 306 308 308 310 310 311 310 310 313 314 315 322 325 325 327 329 331 331 331 331 330 329 327 326 329 329 327 330 332 331 330 329 328 327 328 329 328 326
307 309 307 308 312 311 307 307 308 310 310 310 310 312 313 314 316 322 323 326 328 330 330 330 330 329 327 325 325 325 326 327 327 330 330 330 329 328 327 327 329 328 326 324
306 310 307 309 312 310 307 307 307 308 310 310 310 311 314 315 316 319 323 326 328 329 329 328 325 323 322 324 324 324 324 325 326 329 329 329 328 327 327 327 328 326 324 322
307 308 310 308 311 313 314 307 307 308 309 309 309 311 318 317 319 320 326 326 328 327 326 325 323 321 319 318 322 323 323 324 325 325 326 327 326 326 327 327 327 325 323 321
304 307 309 309 312 311 313 311 307 309 309 308 311 311 319 319 322 325 326 325 325 324 324 323 321 319 316 313 312 313 321 323 323 324 324 324 324 325 326 326 325 323 322 321
304 307 308 311 313 310 313 314 311 310 314 309 310 310 322 319 319 326 324 324 324 324 323 321 319 316 314 311 310 310 311 313 322 323 323 323 323 323 324 326 325 324 322 320
304 307 307 305 305 308 312 316 312 314 315 314 313 311 316 320 322 325 324 323 323 323 321 319 318 316 313 309 308 308 308 309 311 317 322 323 324 324 325 325 325 324 322 320
305 307 305 306 309 309 314 317 315 311 310 312 311 313 312 317 320 322 324 324 322 321 320 317 315 314 313 309 306 307 306 307 307 309 313 324 323 324 325 325 325 324 324 322
306 308 308 306 307 310 318 315 315 316 317 313 315 314 320 316 317 323 323 322 320 318 317 314 313 311 310 310 306 304 304 304 304 304 304 307 321 322 323 324 324 324 324 324
306 307 307 307 308 316 313 310 314 315 314 315 316 317 320 322 320 319 317 316 316 315 313 312 310 308 307 307 308 305 301 301 301 300 300 300 303 311 319 321 323 323 323 323
307 307 309 308 308 310 311 309 309 312 315 317 316 319 319 316 317 314 311 312 311 311 310 309 306 305 304 304 304 304 301 298 298 297 297 297 299 301 307 315 322 322 322 322
306 308 309 307 306 310 309 308 308 311 319 313 315 319 318 317 320 312 310 309 308 307 307 306 305 303 302 301 302 301 299 297 295 294 294 295 296 297 299 304 312 320 322 322
307 308 309 308 309 306 309 308 310 317 316 313 308 315 315 313 309 307 307 306 306 304 303 304 302 300 299 298 299 299 297 295 293 292 293 293 293 294 296 299 305 313 319 321
305 309 311 309 308 310 309 308 312 311 311 308 310 311 311 310 308 305 304 304 304 303 302 301 301 298 296 295 296 296 295 293 292 291 291 292 291 292 292 294 299 307 313 310
308 306 308 307 308 307 304 305 307 306 307 306 312 313 310 307 305 303 302 301 300 300 299 298 298 297 295 293 293 293 292 292 291 290 290 289 290 289 290 292 293 296 297 296
303 305 305 304 306 303 300 299 300 302 302 302 304 308 307 305 303 301 300 299 299 297 296 296 295 294 293 292 291 291 291 291 290 289 289 288 287 287 288 289 289 290 291 290
303 305 303 303 303 301 300 298 298 298 298 300 298 302 303 301 300 300 298 297 296 295 294 293 292 291 290 289 289 288 289 290 289 288 288 287 286 286 285 284 285 286 288 288
303 302 302 303 300 299 299 297 297 296 296 296 298 299 299 299 298 297 295 292 291 291 290 289 289 288 287 287 286 286 286 288 288 287 286 286 286 285 284 284 283 283 283 285
Wind_Speed
11 17 26 22 22 27 20 25 27 26 20 20 21 22 19 21 23 22 21 20 17 16 14 19 22 22 22 19 17 19 22 28 29 30 29 25 24 22 19 18 18 20 20 22
14 25 25 24 26 29 25 27 30 28 26 21 24 23 22 22 25 22 21 21 20 19 20 19 21 22 22 18 19 20 23 27 30 30 26 23 24 20 18 18 19 19 22 21
21 31 23 25 26 29 30 27 28 26 24 19 23 29 25 27 28 27 27 25 22 21 21 20 18 21 18 22 22 21 23 27 28 28 25 24 20 13 16 16 18 20 21 27
22 27 26 26 29 28 26 27 26 23 20 18 21 22 22 24 25 23 24 25 23 21 20 16 12 13 20 22 20 20 22 26 27 30 28 29 24 18 19 18 20 20 22 22
28 29 29 30 26 20 31 25 25 22 18 20 25 18 15 15 19 17 14 13 13 6 7 11 13 14 19 20 18 19 21 26 27 30 30 28 25 20 17 18 17 19 20 23
23 25 25 30 33 31 26 23 26 20 16 17 25 22 19 17 12 11 4 1 6 5 5 5 5 5 12 11 13 14 19 24 26 28 29 28 25 20 18 18 17 18 20 21
31 22 21 33 30 29 28 22 17 16 15 20 23 21 19 13 11 11 15 10 8 7 4 1 2 1 3 10 10 11 17 21 22 26 27 25 22 19 18 17 17 16 16 16
18 29 22 26 29 28 28 26 17 24 16 21 22 19 18 17 16 8 10 11 8 5 5 6 6 4 2 3 9 11 16 16 18 21 23 21 19 18 16 16 15 16 18 16
18 21 40 30 20 23 26 25 27 26 20 14 13 18 19 15 13 14 12 11 7 6 7 8 9 7 7 1 4 8 12 15 17 20 21 20 19 17 16 15 14 15 12 12
12 29 21 22 19 23 23 21 23 18 23 23 17 18 16 19 14 21 15 10 8 8 7 7 8 8 7 2 3 6 9 12 16 21 20 20 19 17 13 13 10 11 11 13
20 7 22 13 7 12 13 19 21 18 19 18 15 15 16 14 18 19 16 11 8 7 8 9 7 9 11 6 1 5 8 10 15 18 18 17 16 15 13 12 11 11 11 13
5 8 14 31 14 16 21 21 23 11 21 18 16 14 12 12 14 15 14 11 11 11 10 10 10 10 12 14 8 2 7 8 13 10 12 12 13 13 13 11 11 10 14 14
10 7 13 20 8 18 12 16 19 19 17 21 16 15 5 3 13 10 16 14 11 11 11 11 12 13 12 13 14 19 2 5 9 12 12 11 13 13 12 11 10 11 15 17
11 11 17 15 19 14 16 23 15 16 15 18 18 18 7 13 14 16 17 12 11 11 11 11 10 11 13 14 13 14 17 20 8 11 11 12 13 12 13 13 12 12 15 19
14 17 17 21 25 19 18 13 13 12 15 17 18 19 14 15 15 15 14 12 10 11 9 10 10 10 10 13 15 14 15 17 18 10 9 13 13 15 16 14 13 12 14 20
15 12 18 22 13 17 19 8 13 15 18 19 15 21 17 6 19 18 17 12 11 10 10 10 9 10 9 11 12 13 15 16 17 16 17 14 13 14 13 12 13 14 13 16
9 10 15 15 16 19 6 12 5 7 10 13 16 12 16 10 8 9 10 12 11 11 9 9 9 8 10 10 9 12 14 15 17 17 19 23 7 13 9 12 14 13 15 15
10 13 11 12 14 3 8 12 8 10 4 7 7 19 11 17 20 18 15 12 12 9 9 9 9 10 12 11 10 10 12 13 14 17 17 22 17 8 6 13 12 15 14 14
7 8 6 6 11 2 4 14 17 14 11 14 13 5 10 13 18 19 14 10 10 8 8 9 10 11 11 13 12 10 13 14 14 16 17 18 19 13 9 3 14 14 14 13
8 8 6 10 7 4 12 20 18 18 2 22 19 8 9 8 6 7 9 9 10 11 11 11 11 12 14 15 13 12 13 14 16 16 16 17 16 15 11 10 8 10 16 15
9 7 7 7 4 4 19 20 22 3 10 16 12 11 13 12 7 6 6 10 10 12 12 10 12 13 14 15 13 12 14 17 16 13 8 9 12 14 13 12 11 10 10 16
5 7 3 6 4 3 24 12 10 12 19 14 2 10 11 15 12 10 10 9 9 10 12 12 11 13 15 16 14 13 15 16 17 19 21 21 21 16 14 11 9 2 12 19
2 4 5 6 11 14 15 14 16 14 14 13 13 7 12 12 10 9 7 7 10 11 13 13 13 13 15 16 16 14 15 15 14 14 15 16 16 19 17 16 13 9 9 17
10 8 4 14 6 12 14 15 15 13 13 13 15 12 11 12 9 10 8 9 9 11 14 14 14 14 15 16 16 15 15 13 14 14 16 18 20 19 20 20 17 15 13 15
5 8 11 11 10 12 15 13 14 13 13 12 14 14 11 12 12 10 10 10 10 13 14 15 14 14 15 15 16 17 16 13 12 13 14 14 16 19 23 31 23 21 15 13
3 1 4 5 8 7 8 11 14 12 11 11 11 11 12 13 12 13 12 14 15 15 16 15 15 15 15 14 15 17 16 15 12 13 15 15 15 17 19 22 30 34 28 23
Wind_Direction
273 254 245 247 241 248 264 270 268 269 272 250 252 266 260 253 249 242 238 255 247 246 241 245 240 237 232 227 226 228 208 204 199 200 196 188 192 191 199 205 208 204 215 216
275 252 261 264 267 270 256 245 252 260 267 270 270 258 262 272 273 261 254 246 242 250 247 244 243 240 234 226 223 220 206 203 201 200 194 192 196 195 204 208 210 209 208 208
279 268 308 292 277 259 255 253 254 257 268 255 254 263 255 256 258 257 251 250 248 243 243 244 241 238 212 219 222 215 206 202 197 189 193 199 197 178 193 205 204 206 204 215
279 293 286 271 263 255 269 249 255 259 262 257 239 262 257 252 241 234 240 234 238 242 245 250 254 244 233 221 222 218 207 202 188 184 201 198 190 191 202 202 207 208 206 205
287 291 285 272 268 271 257 261 262 253 244 253 252 258 258 253 254 220 221 227 217 213 237 240 236 242 240 220 202 217 208 201 186 195 199 200 200 197 193 201 198 204 204 209
304 308 286 264 273 271 278 276 251 259 242 239 240 244 251 257 215 233 149 173 140 191 211 232 240 274 244 138 187 205 214 200 186 197 200 200 201 196 191 194 200 205 208 213
311 319 300 276 246 250 252 254 237 228 228 233 231 233 242 247 268 209 161 148 175 164 144 257 9 339 199 166 182 203 214 201 194 199 204 197 200 202 199 195 200 203 207 203
333 314 318 320 302 256 234 243 234 222 218 238 232 250 237 232 234 221 134 153 161 149 102 71 51 54 73 147 179 207 211 195 192 203 199 198 198 200 201 203 210 216 219 220
318 298 312 304 262 271 222 229 241 248 244 254 240 217 244 239 215 151 177 171 146 111 75 64 65 37 26 39 244 211 220 183 184 201 207 199 197 201 204 208 210 211 211 220
302 302 309 323 317 267 231 217 230 227 240 249 234 237 215 214 191 167 188 175 138 113 90 60 45 35 26 10 186 213 222 192 195 206 199 198 199 202 204 206 196 206 206 217
324 291 306 310 245 285 193 233 230 226 221 245 246 244 260 236 180 171 180 153 141 117 99 82 56 46 25 4 16 209 210 218 199 221 195 196 195 201 200 205 198 204 211 216
327 298 298 297 251 296 308 214 226 216 230 231 249 251 339 164 150 180 136 147 132 113 95 81 74 53 47 26 358 191 204 214 206 197 192 202 197 198 197 199 193 193 207 211
324 313 315 330 40 354 334 285 227 229 222 229 228 248 159 202 146 142 173 131 137 121 106 85 67 57 47 38 32 24 340 195 195 200 192 197 202 196 195 190 189 195 210 209
286 294 299 295 306 309 296 271 254 256 226 230 235 236 177 171 179 168 114 134 139 117 91 80 70 61 48 36 30 31 20 16 237 210 204 201 199 200 208 185 186 181 203 199
319 296 295 300 304 299 307 273 248 262 235 259 246 230 192 172 176 152 149 171 132 109 95 80 78 71 56 34 17 27 27 15 10 355 204 211 212 210 207 183 186 183 185 196
313 298 302 302 302 336 311 175 249 260 252 259 255 275 311 163 271 172 162 159 129 119 102 82 66 58 61 44 18 11 18 17 15 11 358 237 214 221 206 198 189 181 185 184
299 297 310 300 326 318 249 350 299 228 266 257 261 284 321 185 33 169 151 116 109 96 84 73 61 47 38 44 38 21 10 12 27 16 10 354 236 211 215 214 203 198 193 190
259 296 292 291 307 287 23 25 14 351 256 216 263 270 305 72 96 74 69 70 71 78 72 63 52 45 33 30 32 33 28 18 24 24 12 360 345 17 233 220 221 208 205 194
229 286 296 300 320 260 34 1 351 342 327 351 320 337 117 102 92 61 64 62 67 63 66 62 51 40 33 24 28 20 32 23 21 24 11 357 340 354 348 317 217 219 207 203
264 240 265 302 310 317 16 347 332 317 274 352 331 282 159 172 93 76 55 56 63 53 47 49 48 39 32 21 17 22 22 22 12 14 5 352 345 352 343 321 296 231 219 206
321 311 275 299 301 303 6 351 323 336 347 339 335 68 74 81 82 100 61 54 56 53 40 46 44 39 30 23 17 22 15 17 359 357 16 358 5 356 348 328 302 273 226 191
315 327 318 330 295 315 9 4 15 338 323 21 80 71 79 95 98 73 54 47 39 45 39 34 45 37 27 23 18 23 18 7 0 358 2 9 6 8 5 5 350 266 175 150
266 8 314 323 316 16 21 353 360 0 0 2 314 98 89 86 82 83 68 64 45 36 36 31 35 39 30 23 20 22 14 7 7 11 19 13 12 17 18 30 26 49 121 128
336 9 312 332 7 17 22 3 354 8 13 13 349 57 73 89 85 72 66 47 41 40 35 31 33 35 30 23 21 19 17 16 22 23 24 25 28 32 39 45 51 60 77 91
313 321 337 310 358 333 27 7 349 3 14 21 17 32 53 67 57 60 56 46 38 34 34 34 33 33 30 25 22 19 16 22 37 43 42 43 39 42 50 53 50 59 69 108
155 84 330 319 358 329 356 6 359 6 20 21 25 30 40 53 50 51 43 34 32 29 29 33 31 34 30 30 29 23 22 28 40 49 46 47 53 56 60 68 67 63 75 90